******************************************************************************* JPL/HORIZONS PANSTARRS (C/2011 L4) 2025-Dec-12 17:56:43 Rec #:90004125 (+COV) Soln.date: 2021-Apr-15_23:31:52 # obs: 5413 (2011-2014) IAU76/J2000 helio. ecliptic osc. elements (au, days, deg., period=Julian yrs): EPOCH= 2456365.5 ! 2013-Mar-14.0000000 (TDB) RMSW= n.a. EC= 1.000032767108972 QR= .3015442238164768 TP= 2456361.6699600024 OM= 65.66588639150341 W= 333.6516376633611 IN= 84.20819702923397 A= -9202.649647082981 MA= 4.2760034872878E-6 ADIST= 9.999999E99 PER= 9.999999E99 N= 1.116E-6 ANGMOM= .013359048 DAN= .31807 DDN= 5.80692 L= 62.8045775 B= -26.2035899 MOID= .66034502 TP= 2013-Mar-10.1699600024 Comet physical (GM= km^3/s^2; RAD= km): GM= n.a. RAD= n.a. M1= 7.8 M2= n.a. k1= 6.5 k2= n.a. PHCOF= n.a. COMET comments 1: soln ref.= JPL#137, data arc: 2011-05-21 to 2014-08-27 2: k1=6.5; ******************************************************************************* ******************************************************************************* Ephemeris / WWW_USER Fri Dec 12 17:56:44 2025 Pasadena, USA / Horizons ******************************************************************************* Target body name: PANSTARRS (C/2011 L4) {source: JPL#137} Center body name: Earth (399) {source: DE441} Center-site name: GEOCENTRIC ******************************************************************************* Start time : A.D. 2013-Mar-10 03:50:00.0000 UT Stop time : A.D. 2013-Mar-10 05:30:00.0000 UT Step-size : 1 minutes ******************************************************************************* Target pole/equ : undefined Target radii : undefined Center geodetic : 0.0, 0.0, -6378.137 {E-lon(deg),Lat(deg),Alt(km)} Center cylindric: 0.0, 0.0, 0.0 {E-lon(deg),Dxy(km),Dz(km)} Center pole/equ : ITRF93 {East-longitude positive} Center radii : 6378.137, 6378.137, 6356.752 km {Equator_a, b, pole_c} Target primary : Sun Vis. interferer : MOON (R_eq= 1737.400) km {source: DE441} Rel. light bend : Sun {source: DE441} Rel. lght bnd GM: 1.3271E+11 km^3/s^2 Small-body perts: Yes {source: SB441-N16} Atmos refraction: NO (AIRLESS) RA format : HMS Time format : CAL Calendar mode : Mixed Julian/Gregorian EOP file : eop.251212.p260310 EOP coverage : DATA-BASED 1962-JAN-20 TO 2025-DEC-12. PREDICTS-> 2026-MAR-09 Units conversion: 1 au= 149597870.700 km, c= 299792.458 km/s, 1 day= 86400.0 s Table cut-offs 1: Elevation (-90.0deg=NO ),Airmass (>38.000=NO), Daylight (NO ) Table cut-offs 2: Solar elongation ( 0.0,180.0=NO ),Local Hour Angle( 0.0=NO ) Table cut-offs 3: RA/DEC angular rate ( 0.0=NO ) ******************************************************************************* Initial IAU76/J2000 heliocentric ecliptic osculating elements (au, days, deg.): EPOCH= 2456365.5 ! 2013-Mar-14.0000000 (TDB) RMSW= n.a. EC= 1.000032767108972 QR= .3015442238164768 TP= 2456361.6699600024 OM= 65.66588639150341 W= 333.6516376633611 IN= 84.20819702923397 Equivalent ICRF heliocentric cartesian coordinates (au, au/d): X= 1.309693762843735E-01 Y= 2.615039992703326E-01 Z= 1.400238446292455E-01 VX=-4.966888948496279E-04 VY=-8.181124395458109E-03 VZ= 4.192867019584384E-02 Comet physical (GM= km^3/s^2; RAD= km): GM= n.a. RAD= n.a. M1= 7.8 M2= n.a. k1= 6.5 k2= n.a. PHCOF= n.a. ******************************************************************************************************************************** Date__(UT)__HR:MN r rdot delta deldot VmagSn VmagOb RNG_3sigma RNGRT_3sig ******************************************************************************************************************************** $$SOE 2013-Mar-10 03:50 0.301544643303 -0.0894365 1.11004463841890 8.7203254 76.7071482 94.1939630 38.9173 0.0001596 2013-Mar-10 03:51 0.301544608218 -0.0855235 1.11004813608286 8.7211858 76.7071527 94.1928853 38.9198 0.0001596 2013-Mar-10 03:52 0.301544574702 -0.0816105 1.11005163409188 8.7220462 76.7071570 94.1918074 38.9224 0.0001596 2013-Mar-10 03:53 0.301544542756 -0.0776975 1.11005513244593 8.7229064 76.7071610 94.1907293 38.9249 0.0001596 2013-Mar-10 03:54 0.301544512379 -0.0737845 1.11005863114494 8.7237664 76.7071649 94.1896509 38.9274 0.0001596 2013-Mar-10 03:55 0.301544483571 -0.0698715 1.11006213018888 8.7246264 76.7071686 94.1885724 38.9299 0.0001596 2013-Mar-10 03:56 0.301544456333 -0.0659585 1.11006562957768 8.7254862 76.7071720 94.1874935 38.9325 0.0001596 2013-Mar-10 03:57 0.301544430664 -0.0620455 1.11006912931130 8.7263459 76.7071753 94.1864145 38.9350 0.0001596 2013-Mar-10 03:58 0.301544406565 -0.0581325 1.11007262938969 8.7272054 76.7071784 94.1853352 38.9375 0.0001596 2013-Mar-10 03:59 0.301544384035 -0.0542195 1.11007612981279 8.7280649 76.7071812 94.1842558 38.9400 0.0001596 2013-Mar-10 04:00 0.301544363074 -0.0503065 1.11007963058056 8.7289242 76.7071839 94.1831760 38.9426 0.0001596 2013-Mar-10 04:01 0.301544343682 -0.0463935 1.11008313169295 8.7297834 76.7071864 94.1820961 38.9451 0.0001596 2013-Mar-10 04:02 0.301544325860 -0.0424805 1.11008663314990 8.7306424 76.7071886 94.1810159 38.9476 0.0001596 2013-Mar-10 04:03 0.301544309608 -0.0385675 1.11009013495136 8.7315014 76.7071907 94.1799355 38.9501 0.0001596 2013-Mar-10 04:04 0.301544294924 -0.0346544 1.11009363709729 8.7323602 76.7071926 94.1788549 38.9526 0.0001596 2013-Mar-10 04:05 0.301544281810 -0.0307414 1.11009713958762 8.7332188 76.7071942 94.1777741 38.9552 0.0001596 2013-Mar-10 04:06 0.301544270266 -0.0268284 1.11010064242232 8.7340774 76.7071957 94.1766930 38.9577 0.0001596 2013-Mar-10 04:07 0.301544260291 -0.0229154 1.11010414560133 8.7349358 76.7071970 94.1756117 38.9602 0.0001596 2013-Mar-10 04:08 0.301544251885 -0.0190024 1.11010764912460 8.7357941 76.7071981 94.1745301 38.9627 0.0001596 2013-Mar-10 04:09 0.301544245048 -0.0150894 1.11011115299208 8.7366523 76.7071989 94.1734484 38.9653 0.0001596 2013-Mar-10 04:10 0.301544239781 -0.0111764 1.11011465720371 8.7375103 76.7071996 94.1723664 38.9678 0.0001596 2013-Mar-10 04:11 0.301544236083 -0.0072633 1.11011816175946 8.7383682 76.7072001 94.1712842 38.9703 0.0001596 2013-Mar-10 04:12 0.301544233955 -0.0033503 1.11012166665925 8.7392260 76.7072003 94.1702018 38.9728 0.0001596 2013-Mar-10 04:13 0.301544233396 0.0005627 1.11012517190306 8.7400837 76.7072004 94.1691191 38.9753 0.0001596 2013-Mar-10 04:14 0.301544234406 0.0044757 1.11012867749083 8.7409412 76.7072003 94.1680362 38.9779 0.0001596 2013-Mar-10 04:15 0.301544236986 0.0083887 1.11013218342249 8.7417987 76.7072000 94.1669531 38.9804 0.0001596 2013-Mar-10 04:16 0.301544241135 0.0123017 1.11013568969801 8.7426559 76.7071994 94.1658697 38.9829 0.0001596 2013-Mar-10 04:17 0.301544246854 0.0162147 1.11013919631733 8.7435131 76.7071987 94.1647862 38.9854 0.0001596 2013-Mar-10 04:18 0.301544254141 0.0201278 1.11014270328041 8.7443701 76.7071978 94.1637024 38.9880 0.0001596 2013-Mar-10 04:19 0.301544262999 0.0240408 1.11014621058719 8.7452270 76.7071966 94.1626183 38.9905 0.0001596 2013-Mar-10 04:20 0.301544273425 0.0279538 1.11014971823762 8.7460838 76.7071953 94.1615341 38.9930 0.0001596 2013-Mar-10 04:21 0.301544285421 0.0318668 1.11015322623165 8.7469405 76.7071938 94.1604496 38.9955 0.0001596 2013-Mar-10 04:22 0.301544298986 0.0357798 1.11015673456923 8.7477970 76.7071921 94.1593649 38.9980 0.0001596 2013-Mar-10 04:23 0.301544314121 0.0396928 1.11016024325030 8.7486534 76.7071902 94.1582800 39.0006 0.0001596 2013-Mar-10 04:24 0.301544330825 0.0436058 1.11016375227483 8.7495097 76.7071880 94.1571948 39.0031 0.0001596 2013-Mar-10 04:25 0.301544349098 0.0475188 1.11016726164275 8.7503658 76.7071857 94.1561094 39.0056 0.0001596 2013-Mar-10 04:26 0.301544368941 0.0514319 1.11017077135402 8.7512219 76.7071832 94.1550238 39.0081 0.0001596 2013-Mar-10 04:27 0.301544390353 0.0553449 1.11017428140859 8.7520777 76.7071805 94.1539380 39.0106 0.0001596 2013-Mar-10 04:28 0.301544413335 0.0592579 1.11017779180641 8.7529335 76.7071775 94.1528519 39.0131 0.0001596 2013-Mar-10 04:29 0.301544437886 0.0631709 1.11018130254742 8.7537892 76.7071744 94.1517656 39.0157 0.0001596 2013-Mar-10 04:30 0.301544464006 0.0670839 1.11018481363157 8.7546447 76.7071711 94.1506791 39.0182 0.0001596 2013-Mar-10 04:31 0.301544491695 0.0709969 1.11018832505881 8.7555001 76.7071676 94.1495924 39.0207 0.0001596 2013-Mar-10 04:32 0.301544520954 0.0749099 1.11019183682910 8.7563553 76.7071639 94.1485054 39.0232 0.0001596 2013-Mar-10 04:33 0.301544551783 0.0788229 1.11019534894238 8.7572105 76.7071599 94.1474182 39.0257 0.0001596 2013-Mar-10 04:34 0.301544584180 0.0827359 1.11019886139861 8.7580655 76.7071558 94.1463308 39.0283 0.0001596 2013-Mar-10 04:35 0.301544618147 0.0866489 1.11020237419772 8.7589204 76.7071515 94.1452431 39.0308 0.0001596 2013-Mar-10 04:36 0.301544653684 0.0905619 1.11020588733968 8.7597751 76.7071470 94.1441553 39.0333 0.0001596 2013-Mar-10 04:37 0.301544690790 0.0944749 1.11020940082442 8.7606298 76.7071423 94.1430672 39.0358 0.0001596 2013-Mar-10 04:38 0.301544729465 0.0983878 1.11021291465190 8.7614843 76.7071373 94.1419788 39.0383 0.0001596 2013-Mar-10 04:39 0.301544769709 0.1023008 1.11021642882208 8.7623386 76.7071322 94.1408903 39.0408 0.0001596 2013-Mar-10 04:40 0.301544811523 0.1062138 1.11021994333488 8.7631929 76.7071269 94.1398015 39.0434 0.0001596 2013-Mar-10 04:41 0.301544854906 0.1101268 1.11022345819028 8.7640470 76.7071214 94.1387125 39.0459 0.0001596 2013-Mar-10 04:42 0.301544899859 0.1140398 1.11022697338821 8.7649010 76.7071157 94.1376232 39.0484 0.0001596 2013-Mar-10 04:43 0.301544946380 0.1179528 1.11023048892863 8.7657549 76.7071098 94.1365338 39.0509 0.0001596 2013-Mar-10 04:44 0.301544994472 0.1218657 1.11023400481149 8.7666087 76.7071036 94.1354441 39.0534 0.0001596 2013-Mar-10 04:45 0.301545044132 0.1257787 1.11023752103673 8.7674623 76.7070973 94.1343542 39.0559 0.0001596 2013-Mar-10 04:46 0.301545095362 0.1296917 1.11024103760430 8.7683158 76.7070908 94.1332641 39.0584 0.0001596 2013-Mar-10 04:47 0.301545148161 0.1336047 1.11024455451415 8.7691691 76.7070841 94.1321737 39.0610 0.0001596 2013-Mar-10 04:48 0.301545202530 0.1375176 1.11024807176624 8.7700224 76.7070772 94.1310831 39.0635 0.0001596 2013-Mar-10 04:49 0.301545258468 0.1414306 1.11025158936051 8.7708755 76.7070701 94.1299923 39.0660 0.0001596 2013-Mar-10 04:50 0.301545315975 0.1453435 1.11025510729692 8.7717285 76.7070628 94.1289012 39.0685 0.0001596 2013-Mar-10 04:51 0.301545375052 0.1492565 1.11025862557540 8.7725814 76.7070552 94.1278100 39.0710 0.0001596 2013-Mar-10 04:52 0.301545435698 0.1531695 1.11026214419591 8.7734341 76.7070475 94.1267185 39.0735 0.0001596 2013-Mar-10 04:53 0.301545497913 0.1570824 1.11026566315840 8.7742867 76.7070396 94.1256268 39.0760 0.0001596 2013-Mar-10 04:54 0.301545561698 0.1609954 1.11026918246283 8.7751392 76.7070315 94.1245348 39.0786 0.0001596 2013-Mar-10 04:55 0.301545627052 0.1649083 1.11027270210912 8.7759916 76.7070232 94.1234426 39.0811 0.0001596 2013-Mar-10 04:56 0.301545693975 0.1688212 1.11027622209725 8.7768438 76.7070147 94.1223502 39.0836 0.0001596 2013-Mar-10 04:57 0.301545762468 0.1727342 1.11027974242716 8.7776959 76.7070060 94.1212576 39.0861 0.0001596 2013-Mar-10 04:58 0.301545832530 0.1766471 1.11028326309879 8.7785479 76.7069971 94.1201648 39.0886 0.0001596 2013-Mar-10 04:59 0.301545904162 0.1805600 1.11028678411210 8.7793997 76.7069880 94.1190717 39.0911 0.0001596 2013-Mar-10 05:00 0.301545977362 0.1844730 1.11029030546703 8.7802515 76.7069786 94.1179784 39.0936 0.0001596 2013-Mar-10 05:01 0.301546052132 0.1883859 1.11029382716354 8.7811031 76.7069691 94.1168848 39.0962 0.0001596 2013-Mar-10 05:02 0.301546128472 0.1922988 1.11029734920157 8.7819546 76.7069594 94.1157911 39.0987 0.0001596 2013-Mar-10 05:03 0.301546206380 0.1962117 1.11030087158108 8.7828059 76.7069495 94.1146971 39.1012 0.0001596 2013-Mar-10 05:04 0.301546285858 0.2001246 1.11030439430201 8.7836571 76.7069394 94.1136029 39.1037 0.0001596 2013-Mar-10 05:05 0.301546366906 0.2040375 1.11030791736431 8.7845082 76.7069291 94.1125085 39.1062 0.0001596 2013-Mar-10 05:06 0.301546449522 0.2079504 1.11031144076794 8.7853592 76.7069186 94.1114138 39.1087 0.0001596 2013-Mar-10 05:07 0.301546533708 0.2118633 1.11031496451283 8.7862101 76.7069079 94.1103189 39.1112 0.0001596 2013-Mar-10 05:08 0.301546619464 0.2157762 1.11031848859895 8.7870608 76.7068970 94.1092238 39.1137 0.0001596 2013-Mar-10 05:09 0.301546706788 0.2196891 1.11032201302624 8.7879114 76.7068859 94.1081285 39.1162 0.0001596 2013-Mar-10 05:10 0.301546795682 0.2236020 1.11032553779464 8.7887618 76.7068746 94.1070329 39.1188 0.0001596 2013-Mar-10 05:11 0.301546886146 0.2275149 1.11032906290412 8.7896122 76.7068631 94.1059371 39.1213 0.0001596 2013-Mar-10 05:12 0.301546978178 0.2314278 1.11033258835462 8.7904624 76.7068514 94.1048411 39.1238 0.0001596 2013-Mar-10 05:13 0.301547071780 0.2353406 1.11033611414608 8.7913125 76.7068395 94.1037449 39.1263 0.0001596 2013-Mar-10 05:14 0.301547166951 0.2392535 1.11033964027846 8.7921625 76.7068274 94.1026484 39.1288 0.0001596 2013-Mar-10 05:15 0.301547263692 0.2431664 1.11034316675170 8.7930123 76.7068151 94.1015517 39.1313 0.0001596 2013-Mar-10 05:16 0.301547362001 0.2470792 1.11034669356577 8.7938620 76.7068026 94.1004548 39.1338 0.0001596 2013-Mar-10 05:17 0.301547461881 0.2509921 1.11035022072060 8.7947116 76.7067899 94.0993576 39.1363 0.0001596 2013-Mar-10 05:18 0.301547563329 0.2549049 1.11035374821614 8.7955611 76.7067770 94.0982603 39.1388 0.0001596 2013-Mar-10 05:19 0.301547666347 0.2588177 1.11035727605235 8.7964104 76.7067639 94.0971627 39.1413 0.0001596 2013-Mar-10 05:20 0.301547770934 0.2627306 1.11036080422918 8.7972596 76.7067505 94.0960649 39.1438 0.0001596 2013-Mar-10 05:21 0.301547877090 0.2666434 1.11036433274657 8.7981087 76.7067370 94.0949668 39.1464 0.0001596 2013-Mar-10 05:22 0.301547984815 0.2705562 1.11036786160447 8.7989576 76.7067233 94.0938685 39.1489 0.0001596 2013-Mar-10 05:23 0.301548094110 0.2744690 1.11037139080283 8.7998065 76.7067094 94.0927700 39.1514 0.0001596 2013-Mar-10 05:24 0.301548204974 0.2783819 1.11037492034161 8.8006552 76.7066953 94.0916713 39.1539 0.0001596 2013-Mar-10 05:25 0.301548317408 0.2822947 1.11037845022075 8.8015038 76.7066811 94.0905724 39.1564 0.0001596 2013-Mar-10 05:26 0.301548431411 0.2862075 1.11038198044020 8.8023522 76.7066666 94.0894732 39.1589 0.0001596 2013-Mar-10 05:27 0.301548546983 0.2901203 1.11038551099991 8.8032005 76.7066519 94.0883738 39.1614 0.0001596 2013-Mar-10 05:28 0.301548664124 0.2940330 1.11038904189983 8.8040487 76.7066370 94.0872742 39.1639 0.0001596 2013-Mar-10 05:29 0.301548782834 0.2979458 1.11039257313991 8.8048968 76.7066219 94.0861743 39.1664 0.0001596 2013-Mar-10 05:30 0.301548903114 0.3018586 1.11039610472010 8.8057448 76.7066066 94.0850743 39.1689 0.0001596 $$EOE ******************************************************************************************************************************** Column meaning: TIME Times PRIOR to 1962 are UT1, a mean-solar time closely related to the prior but now-deprecated GMT. Times AFTER 1962 are in UTC, the current civil or "wall-clock" time-scale. UTC is kept within 0.9 seconds of UT1 using integer leap-seconds for 1972 and later years. Conversion from the internal Barycentric Dynamical Time (TDB) of solar system dynamics to the non-uniform civil UT time-scale requested for output has not been determined for UTC times after the next July or January 1st. Therefore, the last known leap-second is used as a constant over future intervals. Time tags refer to the UT time-scale conversion from TDB on Earth regardless of observer location within the solar system, although clock rates may differ due to the local gravity field and no analog to "UT" may be defined for that location. Any 'b' symbol in the 1st-column denotes a B.C. date. First-column blank (" ") denotes an A.D. date. CALENDAR SYSTEM Mixed calendar mode was active such that calendar dates after AD 1582-Oct-15 (if any) are in the modern Gregorian system. Dates prior to 1582-Oct-5 (if any) are in the Julian calendar system, which is automatically extended for dates prior to its adoption on 45-Jan-1 BC. The Julian calendar is useful for matching historical dates. The Gregorian calendar more accurately corresponds to the Earth's orbital motion and seasons. A "Gregorian-only" calendar mode is available if such physical events are the primary interest. NOTE: "n.a." in output means quantity "not available" at the print-time. STATISTICAL UNCERTAINTIES Output includes formal +/- 3 standard-deviation statistical orbit uncertainty quantities. There is a 99.7% (1-D) or 98.9% (2-D) chance the actual value is within given bounds. These statistical calculations assume observational data errors are random. If there are systematic biases (such as timing, reduction or star-catalog errors), results can be optimistic. Because the epoch covariance is mapped using linearized variational partial derivatives, results can also be optimistic for times far from the solution epoch, particularly for objects having close planetary encounters. 'r rdot' = The Sun's apparent range ("r", light-time aberrated) and range-rate ("rdot") relative to the target center, as seen by the observer. A positive "rdot" means the target center was moving away from the Sun, negative means moving toward the Sun. Units: AU and KM/S 'delta deldot' = Apparent range ("delta", light-time aberrated) and range-rate ("delta-dot") of the target center relative to the observer. A positive "deldot" means the target center is moving away from the observer, negative indicates movement toward the observer. Units: AU and KM/S 'VmagSn VmagOb' = Magnitude of target centers' velocity with respect to the Sun ("VmagSn") and the observer ("VmagOb") at the time light left the target center to be observed (print time minus down-leg light-time). These are absolute values of the velocity vectors (total speeds) and do NOT indicate direction of motion. Units: KM/S 'RNG_3sigma RNGRT_3sig' = Range and range rate (radial velocity) formal 3-standard-deviation uncertainties. Units: KM, KM/S Computations by ... Solar System Dynamics Group, Horizons On-Line Ephemeris System 4800 Oak Grove Drive, Jet Propulsion Laboratory Pasadena, CA 91109 USA General site: https://ssd.jpl.nasa.gov/ Mailing list: https://ssd.jpl.nasa.gov/email_list.html System news : https://ssd.jpl.nasa.gov/horizons/news.html User Guide : https://ssd.jpl.nasa.gov/horizons/manual.html Connect : browser https://ssd.jpl.nasa.gov/horizons/app.html#/x API https://ssd-api.jpl.nasa.gov/doc/horizons.html command-line telnet ssd.jpl.nasa.gov 6775 e-mail/batch https://ssd.jpl.nasa.gov/ftp/ssd/horizons_batch.txt scripts https://ssd.jpl.nasa.gov/ftp/ssd/SCRIPTS Author : Jon.D.Giorgini@jpl.nasa.gov ******************************************************************************************************************************** !$$SOF COMMAND = '2011 L4' QUANTITIES = '19,20,22,39' START_TIME = '2013-03-10 03:50' STEP_SIZE = '1 min' STOP_TIME = '2013-03-10 05:30'